Date String (YYYY-MM-DD hh:mm:ss) UTC,Instrument flags,Ambient pressure (hPa),Sample flow (lpm),Bypass flow (lpm),Sample temperature (°C),Ambient temperature (°C),ASC tube jacket temperature (°C),LED temperature (°C),Box temperature (°C),Sample RH (%),Span deviation,Mass concentration (μg/m³),Mass concentration (μg/m³),Mass concentration (μg/m³)
DateTimeUTC,F1_M11,P_M11,Q1_M11,Q2_M11,T1_M11,T2_M11,T3_M11,T4_M11,T5_M11,U1_M11,ZSPAN_M11,X0_M11,X2_M11,X1_M11
2022-10-21 02:00:00,,0823.0,5.01,0.00,29.7,28.5,00.0,38.5,31.7,08.3,0000.0,0006.86,0001.88,0001.33
2022-10-21 02:01:00,,0823.0,5.01,0.00,29.8,28.5,00.0,38.5,31.7,08.3,0000.0,0007.04,0001.92,0001.35
2022-10-21 02:02:00,,0822.9,4.98,0.00,29.8,28.5,00.0,38.6,31.7,08.3,0000.0,0007.23,0001.99,0001.36
2022-10-21 02:03:00,,0822.9,5.00,0.00,29.8,28.6,00.0,38.6,31.7,08.3,0000.0,0008.06,0002.02,0001.37
2022-10-21 02:04:00,,0822.9,5.02,0.00,29.8,28.6,00.0,38.6,31.7,08.3,0000.0,0009.01,0001.97,0001.37
2022-10-21 02:05:00,,0823.0,4.99,0.00,29.8,28.6,00.0,38.6,31.7,08.3,0000.0,0009.18,0002.01,0001.37
2022-10-21 02:06:00,,0822.9,5.00,0.00,29.9,28.6,00.0,38.6,31.8,08.3,0000.0,0008.98,0002.05,0001.38
2022-10-21 02:07:00,,0822.9,5.00,0.00,29.9,28.6,00.0,38.6,31.8,08.3,0000.0,0008.87,0002.09,0001.38
2022-10-21 02:08:00,,0823.0,4.98,0.00,29.9,28.6,00.0,38.7,31.8,08.3,0000.0,0009.10,0002.09,0001.38
2022-10-21 02:09:00,,0823.0,4.99,0.00,29.9,28.7,00.0,38.7,31.9,08.3,0000.0,0010.04,0002.10,0001.37
2022-10-21 02:10:00,,0823.0,5.01,0.00,29.9,28.7,00.0,38.7,31.9,08.3,0000.0,0010.57,0002.12,0001.37
2022-10-21 02:11:00,,0822.9,5.00,0.00,30.0,28.0,00.0,38.7,31.8,08.2,0000.0,0010.96,0002.16,0001.37
2022-10-21 02:12:00,,0822.9,5.01,0.00,29.9,26.5,00.0,38.6,31.7,08.2,0000.0,0010.91,0002.15,0001.37
2022-10-21 02:13:00,,0822.9,5.00,0.00,29.9,26.2,00.0,38.6,31.6,08.2,0000.0,0010.17,0002.12,0001.36
2022-10-21 02:14:00,,0822.9,4.98,0.00,29.8,26.4,00.0,38.5,31.5,08.2,0000.0,0009.48,0002.09,0001.35
2022-10-21 02:15:00,,0823.0,5.01,0.00,29.7,26.8,00.0,38.5,31.4,08.3,0000.0,0008.36,0002.05,0001.34
2022-10-21 02:16:00,,0822.9,5.00,0.00,29.7,27.1,00.0,38.5,31.4,08.3,0000.0,0007.53,0002.02,0001.33
2022-10-21 02:17:00,,0823.0,5.01,0.00,29.6,27.4,00.0,38.5,31.4,08.3,0000.0,0007.22,0001.96,0001.32
2022-10-21 02:18:00,,0823.0,4.99,0.00,29.6,27.6,00.0,38.5,31.4,08.3,0000.0,0007.05,0001.89,0001.32
2022-10-21 02:19:00,,0822.9,5.02,0.00,29.6,27.8,00.0,38.5,31.5,08.4,0000.0,0006.58,0001.87,0001.32
2022-10-21 02:20:00,,0822.9,5.02,0.00,29.6,27.9,00.0,38.5,31.5,08.3,0000.0,0005.47,0001.83,0001.31
2022-10-21 02:21:00,,0822.9,5.03,0.00,29.6,28.0,00.0,38.5,31.5,08.4,0000.0,0004.63,0001.81,0001.30
2022-10-21 02:22:00,,0822.9,5.00,0.00,29.6,28.1,00.0,38.5,31.5,08.5,0000.0,0003.97,0001.79,0001.30
2022-10-21 02:23:00,,0823.0,5.01,0.00,29.6,28.2,00.0,38.5,31.5,08.5,0000.0,0003.85,0001.78,0001.30
2022-10-21 02:24:00,,0823.0,4.99,0.00,29.7,28.2,00.0,38.5,31.5,08.5,0000.0,0004.20,0001.85,0001.32
2022-10-21 02:25:00,,0823.0,4.99,0.00,29.7,28.3,00.0,38.5,31.6,08.4,0000.0,0006.12,0001.91,0001.33
2022-10-21 02:26:00,,0823.0,5.00,0.00,29.7,28.3,00.0,38.5,31.6,08.4,0000.0,0007.35,0001.98,0001.35
2022-10-21 02:27:00,,0823.0,5.01,0.00,29.7,28.4,00.0,38.5,31.6,08.4,0000.0,0007.53,0002.01,0001.36
2022-10-21 02:28:00,,0823.0,4.99,0.00,29.7,28.4,00.0,38.5,31.6,08.4,0000.0,0007.72,0002.07,0001.37
2022-10-21 02:29:00,,0823.0,5.01,0.00,29.7,28.4,00.0,38.5,31.7,08.4,0000.0,0007.77,0002.11,0001.38
2022-10-21 02:30:00,,0823.0,5.00,0.00,29.7,28.5,00.0,38.5,31.7,08.4,0000.0,0007.86,0002.19,0001.40
2022-10-21 02:31:00,,0823.0,5.00,0.00,29.8,28.5,00.0,38.6,31.7,08.4,0000.0,0007.49,0002.26,0001.41
2022-10-21 02:32:00,,0823.0,5.01,0.00,29.8,28.5,00.0,38.6,31.7,08.3,0000.0,0007.66,0002.28,0001.42
2022-10-21 02:33:00,,0822.9,5.01,0.00,29.8,28.5,00.0,38.6,31.8,08.3,0000.0,0007.88,0002.33,0001.42
2022-10-21 02:34:00,,0822.9,4.99,0.00,29.8,28.6,00.0,38.6,31.7,08.3,0000.0,0007.96,0002.35,0001.42
2022-10-21 02:35:00,,0822.9,5.01,0.00,29.8,28.6,00.0,38.6,31.8,08.3,0000.0,0008.51,0002.32,0001.42
2022-10-21 02:36:00,,0822.9,5.01,0.00,29.9,28.6,00.0,38.6,31.8,08.3,0000.0,0008.10,0002.32,0001.43
2022-10-21 02:37:00,,0822.9,4.99,0.00,29.9,28.6,00.0,38.6,31.8,08.3,0000.0,0007.65,0002.34,0001.44
2022-10-21 02:38:00,,0822.9,5.01,0.00,29.9,28.6,00.0,38.7,31.8,08.3,0000.0,0008.20,0002.38,0001.44
2022-10-21 02:39:00,,0823.1,4.99,0.00,29.9,28.7,00.0,38.7,31.8,08.2,0000.0,0008.96,0002.42,0001.45
2022-10-21 02:40:00,,0823.0,5.00,0.00,29.9,28.7,00.0,38.7,31.9,08.2,0000.0,0008.98,0002.42,0001.45
2022-10-21 02:41:00,,0822.9,5.00,0.00,29.9,28.7,00.0,38.7,31.9,08.2,0000.0,0009.14,0002.42,0001.46
2022-10-21 02:42:00,,0823.0,5.02,0.00,30.0,28.7,00.0,38.7,31.9,08.2,0000.0,0009.30,0002.43,0001.46
2022-10-21 02:43:00,,0823.0,5.02,0.00,30.0,28.7,00.0,38.8,31.9,08.1,0000.0,0009.09,0002.45,0001.45
2022-10-21 02:44:00,,0823.0,4.98,0.00,30.0,28.8,00.0,38.8,32.0,08.1,0000.0,0009.20,0002.40,0001.45
2022-10-21 02:45:00,,0822.9,4.98,0.00,30.0,28.3,00.0,38.8,31.9,08.1,0000.0,0009.52,0002.38,0001.45
2022-10-21 02:46:00,,0822.9,5.00,0.00,30.0,26.8,00.0,38.7,31.8,08.0,0000.0,0009.25,0002.33,0001.43
2022-10-21 02:47:00,,0822.9,5.01,0.00,29.9,26.3,00.0,38.6,31.7,08.1,0000.0,0008.85,0002.24,0001.42
2022-10-21 02:48:00,,0822.9,5.01,0.00,29.9,26.4,00.0,38.6,31.5,08.2,0000.0,0009.00,0002.19,0001.41
2022-10-21 02:49:00,,0822.9,4.99,0.00,29.8,26.8,00.0,38.6,31.4,08.2,0000.0,0009.01,0002.16,0001.41
2022-10-21 02:50:00,,0822.9,4.99,0.00,29.7,27.1,00.0,38.6,31.5,08.2,0000.0,0008.97,0002.14,0001.40
2022-10-21 02:51:00,,0823.0,5.00,0.00,29.7,27.4,00.0,38.6,31.4,08.3,0000.0,0009.32,0002.21,0001.40
2022-10-21 02:52:00,,0823.0,4.99,0.00,29.7,27.6,00.0,38.6,31.4,08.2,0000.0,0010.17,0002.22,0001.39
2022-10-21 02:53:00,,0822.9,5.00,0.00,29.7,27.8,00.0,38.5,31.4,08.2,0000.0,0010.17,0002.24,0001.39
2022-10-21 02:54:00,,0822.9,4.99,0.00,29.7,27.9,00.0,38.5,31.5,08.2,0000.0,0010.18,0002.22,0001.39
2022-10-21 02:55:00,,0822.9,5.00,0.00,29.7,28.0,00.0,38.5,31.5,08.1,0000.0,0009.87,0002.24,0001.38
2022-10-21 02:56:00,,0822.9,5.00,0.00,29.7,28.1,00.0,38.5,31.5,08.1,0000.0,0009.86,0002.21,0001.36
2022-10-21 02:57:00,,0822.9,5.00,0.00,29.7,28.2,00.0,38.5,31.5,08.1,0000.0,0011.04,0002.22,0001.36
2022-10-21 02:58:00,,0823.0,4.99,0.00,29.7,28.2,00.0,38.5,31.5,08.1,0000.0,0010.68,0002.19,0001.35
2022-10-21 02:59:00,,0822.9,5.01,0.00,29.7,28.3,00.0,38.5,31.6,08.1,0000.0,0010.33,0002.20,0001.34
